Tracking 20241 objects as of 26-Jan-2020
HD Live streaming from Space Station
objects crossing your sky now

CZ-2D DEB

Track CZ-2D DEB now!
10-day predictions


NORAD ID: 38178
Int'l Code: 2011-068F
Perigee: 699.3 km
Apogee: 892.9 km
Inclination: 98.6 °
Period: 100.6 minutes
Semi major axis: 7167 km
RCS: 0.0014 m2 (small)
Launch date: November 20, 2011
Source: People's Republic of China (PRC)
Launch site: Jiuquan Satellite Launch Center, China (JSC)

Note: This is SATELLITE DEBRIS
aabbcc
Your satellite tracking list
Your tracking list is empty




NASA's NSSDC Master Catalog

Two Line Element Set (TLE):
1 38178U 11068F   20025.39381256 +.00000206 +00000-0 +86525-4 0  9997
2 38178 098.6306 002.3542 0135064 098.5471 055.0412 14.30836831423520
Source of the keplerian elements: AFSPC